Terminal Aerodrome Forecast
Issued by NWS Des Moines, IA

Home | Current Version | Previous Version | Text Only | Print | Product List | Glossary On
Versions: 1 2 3 4 5 6 7 8 9 10 11 12 13 14 15 16 17 18 19 20 21 22 23 24 25 26 27
000
FTUS43 KDMX 290834 AAA
TAFDSM
TAF AMD
KDSM 290834Z 2909/3006 36007KT P6SM BKN008 OVC015
     FM291500 05009KT P6SM BKN015
     FM292200 08011KT P6SM BKN035=

USA.gov is the U.S. government's official web portal to all federal, state and local government web resources and services.